Weather History for Silver Bay, MN

Change the Weather History Date:

Saturday, July 13, 2013

  Actual Average Record
Temperature  
Mean Temperature 54 °F -  
Max Temperature 73 °F 72 °F 91 °F (1998)
Min Temperature 35 °F 49 °F 35 °F (2013)
Degree Days  
Heating Degree Days 11    
Growing Degree Days 4 (Base 50)    
Moisture  
Dew Point 60 °F    
Average Humidity 76    
Maximum Humidity 88    
Minimum Humidity 64    
Precipitation  
Precipitation 0.13 in - - ()
Sea Level Pressure  
Sea Level Pressure 30.01 in    
Wind  
Wind Speed 2 mph (SW)    
Max Wind Speed 12 mph    
Max Gust Speed 20 mph    
Visibility 10 miles    
Events Rain , Thunderstorm    
Averages and records for this station are not official NWS values.
T = Trace of Precipitation, MM = Missing Value Source: NWS Daily Summary

Daily Weather History Graph

Daily Weather History Graph

Search for Another Location

Airport:

Trip Planner

Search our weather history database for the weather conditions in past years. The results will help you decide how hot, cold, wet, or windy it might be!

Date:

Astronomy

Jul. 13, 2013 Rise Set
Actual Time 5:23 AM CDT 8:59 PM CDT
Civil Twilight 4:44 AM CDT 9:37 PM CDT
Nautical Twilight 3:52 AM CDT 10:29 PM CDT
Astronomical Twilight 2:42 AM CDT 11:38 PM CDT
Moon 11:04 AM CDT (7/13) 11:12 PM CDT (7/13)
Length of Visible Light 16h 53m
Length of Day
15h 36m
Waxing Crescent, 26% of the Moon is Illuminated
Jul 13
Waxing Crescent
Jul 15
First Quarter
Jul 22
Full
Jul 29
Last Quarter
Aug 6
New

Hourly Weather History & Observations

Time (CDT) Temp. Dew Point Humidity Pressure Visibility Wind Dir Wind Speed Gust Speed Precip Events Conditions
12:13 AM 66.2 °F 55.4 °F 68% 29.94 in 10.0 mi Calm Calm - N/A   Clear
12:33 AM 68.0 °F 55.4 °F 64% 29.95 in 10.0 mi Calm Calm - N/A   Clear
12:53 AM 66.2 °F 55.4 °F 68% 29.94 in 10.0 mi Calm Calm - N/A   Clear
1:14 AM 66.2 °F 55.4 °F 68% 29.95 in 10.0 mi Calm Calm - N/A   Clear
1:33 AM 66.2 °F 57.2 °F 73% 29.94 in 10.0 mi Calm Calm - N/A   Clear
1:53 AM 64.4 °F 55.4 °F 73% 29.95 in 10.0 mi Calm Calm - N/A Thunderstorm Clear
2:14 AM 64.4 °F 55.4 °F 73% 29.96 in 10.0 mi Calm Calm - N/A   Clear
2:33 AM 66.2 °F 57.2 °F 73% 29.96 in 10.0 mi Calm Calm - N/A Rain Rain
2:53 AM 66.2 °F 57.2 °F 73% 29.97 in 10.0 mi Calm Calm - N/A Thunderstorm Unknown
3:13 AM 66.2 °F 59.0 °F 78% 29.95 in 7.0 mi Calm Calm - N/A Rain , Thunderstorm Light Thunderstorms and Rain
3:33 AM 64.4 °F 60.8 °F 88% 29.96 in 10.0 mi SSW 9.2 mph - 0.04 in Rain , Thunderstorm Light Thunderstorms and Rain
3:53 AM 64.4 °F 60.8 °F 88% 29.94 in 7.0 mi SSW 11.5 mph 19.6 mph 0.03 in Rain , Thunderstorm Rain
4:13 AM 62.6 °F 59.0 °F 88% 29.94 in 7.0 mi SSW 11.5 mph 18.4 mph 0.04 in Rain Light Rain
4:33 AM 62.6 °F 59.0 °F 88% 29.94 in 7.0 mi SW 5.8 mph - 0.04 in   Overcast
4:53 AM 62.6 °F 57.2 °F 82% 29.94 in 7.0 mi Calm Calm - N/A   Scattered Clouds
5:13 AM 62.6 °F 57.2 °F 82% 29.95 in 10.0 mi Calm Calm - N/A   Clear
5:33 AM 62.6 °F 57.2 °F 82% 29.96 in 10.0 mi Calm Calm - N/A   Scattered Clouds
5:53 AM 62.6 °F 57.2 °F 82% 29.97 in 10.0 mi Calm Calm - N/A   Clear
6:13 AM 62.6 °F 57.2 °F 82% 29.97 in 10.0 mi Calm Calm - N/A   Clear
6:33 AM 62.6 °F 57.2 °F 82% 29.97 in 10.0 mi Calm Calm - N/A   Scattered Clouds
6:53 AM 64.4 °F 57.2 °F 77% 29.98 in 10.0 mi Calm Calm - N/A   Clear
7:13 AM 64.4 °F 57.2 °F 77% 29.99 in 10.0 mi Calm Calm - N/A   Clear
7:33 AM 64.4 °F 59.0 °F 83% 29.99 in 10.0 mi Calm Calm - N/A   Clear
7:53 AM 64.4 °F 59.0 °F 83% 30.00 in 10.0 mi Calm Calm - N/A   Scattered Clouds
8:13 AM 64.4 °F 59.0 °F 83% 30.01 in 4.0 mi Calm Calm - 0.02 in Rain Rain
8:33 AM 64.4 °F 60.8 °F 88% 30.01 in 7.0 mi Calm Calm - 0.05 in Rain Rain
8:53 AM 64.4 °F 60.8 °F 88% 30.00 in 7.0 mi Calm Calm - N/A Rain Light Rain
9:13 AM 64.4 °F 60.8 °F 88% 30.00 in 10.0 mi SSW 6.9 mph - N/A   Clear
9:33 AM 66.2 °F 60.8 °F 83% 30.01 in 10.0 mi SW 5.8 mph - N/A   Clear
9:53 AM 66.2 °F 60.8 °F 83% 30.00 in 10.0 mi SW 6.9 mph - N/A   Scattered Clouds
10:14 AM 69.8 °F 62.6 °F 78% 30.01 in 10.0 mi SW 4.6 mph - N/A   Clear
10:33 AM 71.6 °F 62.6 °F 73% 30.00 in 10.0 mi SSW 4.6 mph - N/A   Clear
10:53 AM 71.6 °F 60.8 °F 69% 30.01 in 10.0 mi South 9.2 mph - N/A   Clear
11:13 AM 71.6 °F 60.8 °F 69% 30.01 in 10.0 mi SSW 10.4 mph - N/A   Clear
11:33 AM 71.6 °F 60.8 °F 69% 30.02 in 10.0 mi SSW 9.2 mph - N/A   Clear
11:53 AM 73.4 °F 60.8 °F 65% 30.01 in 10.0 mi Calm Calm - N/A   Clear
12:13 PM 73.4 °F 60.8 °F 65% 30.01 in 10.0 mi SSW 9.2 mph - N/A   Clear
12:33 PM 71.6 °F 62.6 °F 73% 30.02 in 10.0 mi SSW 6.9 mph - N/A   Clear
12:53 PM 73.4 °F 62.6 °F 69% 30.02 in 10.0 mi SW 6.9 mph - N/A   Clear
1:13 PM 73.4 °F 60.8 °F 65% 30.02 in 10.0 mi South 11.5 mph 17.3 mph N/A   Clear
1:33 PM 71.6 °F 60.8 °F 69% 30.02 in 10.0 mi SW 10.4 mph - N/A   Clear
1:53 PM 73.4 °F 60.8 °F 65% 30.03 in 10.0 mi SW 5.8 mph - N/A   Clear
2:13 PM 71.6 °F 60.8 °F 69% 30.03 in 10.0 mi SW 4.6 mph - N/A   Clear
2:33 PM 73.4 °F 60.8 °F 65% 30.03 in 10.0 mi SW 5.8 mph - N/A   Clear
2:53 PM 73.4 °F 60.8 °F 65% 30.03 in 10.0 mi Calm Calm - N/A   Clear
3:13 PM 73.4 °F 60.8 °F 65% 30.03 in 10.0 mi Calm Calm - N/A   Clear
3:33 PM 73.4 °F 60.8 °F 65% 30.03 in 10.0 mi WSW 5.8 mph - N/A   Clear
3:53 PM 73.4 °F 60.8 °F 65% 30.03 in 10.0 mi SW 4.6 mph - N/A   Clear
4:13 PM 73.4 °F 60.8 °F 65% 30.03 in 10.0 mi SW 3.5 mph - N/A   Unknown
4:33 PM - - N/A% 30.04 in 10.0 mi Calm Calm - N/A   Clear
4:53 PM 35.6 °F - N/A% - 10.0 mi Calm Calm - N/A   Clear
5:13 PM - - N/A% 30.03 in 10.0 mi Calm Calm - N/A   Clear
5:33 PM 71.6 °F 62.6 °F 73% 30.04 in 10.0 mi Calm Calm - N/A   Clear
5:51 PM 71.6 °F 62.6 °F 73% 30.04 in 10.0 mi SW 3.5 mph - N/A   Clear
5:55 PM 71.6 °F 62.6 °F 73% 30.03 in 7.0 mi Calm Calm - N/A   Clear
6:13 PM 71.6 °F 62.6 °F 73% 30.04 in 10.0 mi Calm Calm - N/A   Clear
6:33 PM 71.6 °F 62.6 °F 73% 30.04 in 10.0 mi Calm Calm - N/A   Clear
6:53 PM 71.6 °F 60.8 °F 69% 30.04 in 10.0 mi Calm Calm - N/A   Clear
7:13 PM 71.6 °F 62.6 °F 73% 30.04 in 10.0 mi Calm Calm - N/A   Clear
7:33 PM 71.6 °F 62.6 °F 73% 30.04 in 10.0 mi Calm Calm - N/A   Clear
7:53 PM 69.8 °F 62.6 °F 78% 30.04 in 10.0 mi Calm Calm - N/A   Clear
8:13 PM 69.8 °F 60.8 °F 73% 30.04 in 10.0 mi Calm Calm - N/A   Clear
8:33 PM 68.0 °F 60.8 °F 78% 30.04 in 10.0 mi Calm Calm - N/A   Scattered Clouds
8:53 PM 68.0 °F 60.8 °F 78% 30.04 in 10.0 mi Calm Calm - N/A   Scattered Clouds
9:13 PM 68.0 °F 60.8 °F 78% 30.04 in 10.0 mi Calm Calm - N/A   Clear
9:33 PM 66.2 °F 60.8 °F 83% 30.05 in 10.0 mi Calm Calm - N/A   Scattered Clouds
9:53 PM 68.0 °F 62.6 °F 83% 30.06 in 10.0 mi Calm Calm - N/A   Scattered Clouds
10:13 PM 68.0 °F 62.6 °F 83% 30.07 in 10.0 mi Calm Calm - N/A   Clear
10:33 PM 66.2 °F 62.6 °F 88% 30.07 in 10.0 mi Calm Calm - N/A   Clear
10:53 PM 66.2 °F 62.6 °F 88% 30.07 in 10.0 mi Calm Calm - N/A   Clear
11:13 PM 66.2 °F 60.8 °F 83% 30.08 in 10.0 mi Calm Calm - N/A   Clear
11:33 PM 66.2 °F 60.8 °F 83% 30.09 in 10.0 mi Calm Calm - N/A   Scattered Clouds
11:53 PM 66.2 °F 60.8 °F 83% 30.08 in 10.0 mi Calm Calm - N/A   Mostly Cloudy